Dewpoint
12 11 11 10 10 10 10 10 8 8 8 7 7 6 7 9 11 12 11 10 12 12 12 13 13 13 13 13 13 13 12 12 12 12 13 13 13 14 14 14 14 14
12 12 12 12 13 12 12 10 9 9 8 8 8 7 7 8 10 11 10 10 11 12 12 12 13 13 13 13 13 13 13 13 12 11 12 12 13 13 14 14 14 14
13 13 14 14 14 13 12 11 9 9 10 9 8 8 8 8 9 10 10 10 11 11 11 12 13 13 13 13 13 13 13 12 11 10 11 12 12 12 13 14 15 15
14 14 14 14 14 14 13 12 11 10 11 10 8 8 8 9 9 10 10 10 10 11 11 11 12 12 12 12 12 13 13 11 10 11 12 13 12 11 11 13 14 15
13 14 14 14 14 14 14 13 13 12 12 11 9 9 9 9 10 10 10 10 10 11 11 11 11 11 12 12 12 13 13 11 11 12 12 11 10 9 10 11 12 13
13 14 14 14 14 15 14 14 13 13 12 11 10 10 10 10 10 10 10 10 11 11 10 11 11 11 11 12 12 13 12 12 12 11 10 10 9 9 10 11 11 11
13 13 14 14 14 14 15 14 14 13 13 13 12 11 11 11 11 10 10 10 10 10 10 11 10 10 10 11 12 12 11 12 12 10 9 11 10 9 9 10 11 10
13 13 13 14 14 14 14 14 14 13 13 13 13 13 12 11 11 10 10 9 10 10 10 10 10 10 10 10 12 12 11 11 10 8 8 9 9 9 8 9 10 9
13 13 13 13 14 14 14 15 14 13 13 13 13 13 12 11 11 10 10 9 9 9 10 9 10 10 10 10 10 10 10 10 9 7 7 8 8 8 8 9 11 10
12 13 13 13 14 14 15 15 15 15 14 13 13 14 13 11 10 10 10 9 9 9 9 9 9 9 9 9 9 9 9 8 8 7 7 7 7 8 8 10 12 11
12 13 13 13 13 14 15 15 16 16 15 13 12 14 14 11 10 10 10 9 9 9 9 9 9 9 9 9 8 7 7 7 7 7 7 7 7 7 8 9 9 9
12 13 13 13 13 14 16 16 16 17 16 14 12 13 14 12 10 9 9 9 9 9 9 8 9 9 8 8 8 8 6 6 6 6 6 6 7 7 7 6 6 6
11 12 13 13 13 14 16 17 17 17 17 16 13 12 13 13 11 9 8 9 9 9 9 9 9 9 8 8 8 8 6 5 5 5 5 6 6 6 6 5 5 5
12 12 12 13 13 13 15 16 17 17 17 17 15 12 13 13 12 10 8 9 9 9 9 10 10 9 9 8 8 7 6 5 4 4 5 5 5 5 5 5 5 5
13 13 12 12 13 13 13 15 16 16 17 17 15 12 12 13 13 13 10 8 8 9 9 9 9 9 8 8 7 6 6 4 3 3 3 4 4 4 4 5 5 5
13 13 12 12 12 13 13 13 14 15 15 15 14 12 12 12 13 14 13 10 8 8 8 8 8 8 7 6 5 5 5 4 3 2 2 3 3 4 4 4 4 4
13 12 12 12 12 12 13 13 13 14 14 14 14 13 13 13 13 13 14 13 11 9 8 7 6 6 5 4 4 3 3 3 3 2 2 2 2 3 4 3 3 3
12 12 12 12 12 12 12 12 13 13 14 14 14 13 13 13 13 13 13 14 14 13 11 9 6 4 3 3 2 2 2 3 2 2 1 2 2 2 2 2 3 2
12 12 12 12 12 12 12 12 13 13 13 14 14 14 14 13 13 13 13 13 14 14 13 11 9 5 2 2 1 1 2 2 2 2 2 2 2 2 2 2 1 2
12 12 12 12 12 12 12 12 12 13 13 13 14 14 14 14 13 14 13 13 13 13 11 11 10 7 2 2 2 1 2 2 2 2 2 2 2 1 1 1 1 1
12 12 12 12 12 12 12 12 12 13 13 13 14 14 14 14 14 14 14 13 13 13 12 11 9 6 3 2 2 2 2 2 3 3 3 2 2 2 2 1 1 0
12 12 12 13 13 13 13 13 13 13 13 13 14 14 14 14 13 14 14 14 13 13 13 11 9 6 4 2 2 2 3 3 3 3 3 3 2 2 2 1 1 0
12 12 12 12 13 13 13 13 13 13 13 13 13 14 15 15 13 13 14 14 13 13 13 12 9 7 5 3 2 3 3 4 4 4 4 3 2 2 2 2 1 1
12 12 12 13 13 13 13 13 13 13 13 13 13 14 15 15 14 13 13 14 14 13 13 12 10 9 7 5 4 5 5 5 5 5 5 4 2 2 2 2 1 1
12 12 12 13 13 13 13 13 13 13 13 13 13 13 14 14 14 14 14 14 14 14 14 13 12 12 10 7 6 7 7 7 7 8 7 6 4 4 3 3 2 2
12 12 12 13 13 13 13 13 13 13 13 13 13 13 13 14 14 15 15 16 16 16 15 14 13 14 13 10 8 8 9 9 10 10 9 7 5 5 5 5 4 2
Wind_Speed
38 37 36 36 35 34 34 33 30 28 27 26 26 26 25 25 23 20 19 17 16 17 17 16 15 14 13 12 11 10 9 9 9 8 7 7 7 7 7 7 7 7
36 36 35 35 34 34 34 33 31 29 27 26 26 26 26 26 23 21 19 18 17 17 17 16 15 15 14 13 12 11 11 11 11 10 9 8 8 7 8 8 8 8
36 35 35 34 33 33 32 32 31 29 27 26 26 27 27 26 23 21 20 19 18 18 17 17 16 15 15 14 13 12 12 12 12 11 11 10 9 9 8 9 9 9
36 35 35 34 32 32 31 31 31 29 28 27 26 27 27 26 24 22 21 20 19 19 18 18 17 16 15 14 13 13 13 13 12 11 12 11 11 11 9 9 10 10
37 36 35 34 33 32 31 31 31 30 29 28 27 27 27 26 25 24 23 21 20 20 20 19 18 17 16 15 14 14 14 14 13 13 14 14 13 12 10 10 11 10
37 36 35 34 33 32 32 31 31 31 30 29 28 28 27 27 26 25 25 23 21 20 20 20 20 19 18 17 16 16 16 15 15 15 15 15 14 12 11 12 12 11
38 36 35 34 33 32 32 32 32 32 31 29 28 28 28 27 27 26 26 25 23 22 21 21 21 21 20 19 18 17 17 17 18 17 16 15 15 14 13 13 13 13
38 37 35 34 33 33 33 32 32 32 31 30 29 28 27 27 27 27 27 26 24 24 23 23 23 22 20 20 19 19 19 19 19 19 19 18 17 16 15 14 14 14
39 38 36 35 34 33 33 32 32 31 31 30 29 28 27 27 27 27 28 27 26 26 25 25 24 22 21 21 21 20 20 20 20 20 20 19 18 17 16 14 14 14
40 38 37 35 34 34 33 32 31 30 31 30 29 27 27 27 27 28 28 29 28 28 28 27 26 24 23 22 22 21 21 20 20 20 19 19 19 18 16 15 15 15
40 39 38 36 34 34 33 32 30 29 30 31 29 28 27 28 28 29 29 30 30 30 29 29 28 26 25 24 23 23 22 22 21 20 20 19 19 19 18 18 17 17
41 40 39 37 35 34 32 31 30 29 29 31 31 29 28 28 29 30 30 31 31 31 30 30 29 28 27 26 25 24 24 24 23 22 21 20 20 20 20 20 19 19
40 40 39 38 36 35 33 31 30 30 29 30 31 30 29 29 30 31 32 32 32 31 30 30 30 29 29 28 27 26 26 26 25 24 23 22 22 22 22 22 21 21
40 40 39 39 37 36 35 32 31 30 29 30 31 31 29 29 30 32 33 33 32 32 31 30 30 30 30 30 29 28 28 28 27 26 25 25 25 24 24 23 23 22
40 39 39 39 39 38 37 35 34 33 32 31 32 32 30 29 29 30 32 33 32 32 31 31 31 31 31 31 31 30 30 30 29 28 28 27 27 26 26 25 24 24
40 40 39 39 39 39 38 36 36 35 34 34 34 32 30 30 30 30 30 31 32 31 31 31 32 32 33 32 31 30 30 30 30 30 29 29 29 28 27 27 26 26
40 40 39 39 39 39 38 37 36 36 35 35 34 33 31 31 31 31 30 29 29 30 30 31 33 33 33 32 30 30 29 30 30 31 31 30 30 29 29 28 28 28
41 40 39 39 39 39 38 36 36 36 36 35 35 33 33 32 32 32 32 30 29 29 29 30 32 33 33 32 31 30 29 29 30 31 31 31 31 30 30 29 29 29
41 40 39 39 39 38 37 36 36 36 36 35 35 34 33 34 33 33 33 32 31 30 30 30 31 32 32 32 31 30 30 29 30 31 32 32 32 31 31 31 31 30
40 40 40 39 39 38 37 37 37 36 36 35 35 34 34 34 34 33 33 33 33 33 32 31 31 32 32 32 31 31 30 30 31 32 33 33 33 32 32 32 32 31
40 40 40 39 39 39 38 38 37 36 36 36 35 35 35 34 33 33 33 33 33 33 33 33 33 33 33 32 32 31 31 31 32 33 34 34 34 34 33 33 33 32
39 39 40 40 39 39 38 38 37 37 37 36 35 34 34 34 33 32 32 33 33 33 33 34 34 34 34 33 32 31 31 31 32 33 34 35 35 34 34 34 33 33
38 39 39 39 39 39 39 38 38 37 36 36 35 34 33 33 32 31 31 32 32 33 34 34 34 34 34 33 32 31 31 32 33 34 35 36 36 35 35 35 34 34
38 38 38 39 39 39 39 38 37 37 36 35 34 34 33 32 31 31 31 31 32 33 33 33 33 33 34 33 32 32 31 32 33 34 35 36 36 35 35 35 35 35
37 37 38 38 39 39 38 37 37 35 34 34 33 33 33 32 31 31 31 31 32 32 32 32 32 32 33 33 33 32 32 32 33 34 35 36 35 35 35 36 36 36
36 36 37 37 38 37 37 36 35 34 34 34 33 33 33 33 32 32 31 30 30 30 31 31 31 31 33 33 33 32 32 32 33 35 35 36 36 35 36 36 37 37
Wind_Direction
224 226 227 229 230 232 233 234 234 234 234 234 235 234 234 234 232 229 230 229 225 224 223 221 220 218 216 216 219 221 224 230 236 237 239 240 240 241 242 244 245 246
221 223 224 226 228 229 230 231 231 231 232 232 232 233 234 234 233 230 229 227 225 224 224 223 220 216 216 217 219 222 224 228 232 235 238 240 241 242 243 245 247 251
219 221 222 223 225 227 227 227 228 227 229 230 228 230 233 234 232 229 227 225 223 223 222 221 218 215 215 217 220 224 228 233 235 237 242 244 243 244 243 244 247 250
219 220 221 222 223 225 224 224 225 225 226 228 227 227 230 232 230 228 226 224 222 222 221 219 217 216 217 219 223 226 231 237 237 235 238 241 242 245 245 245 245 246
220 220 221 222 223 224 224 223 224 225 224 225 226 226 227 228 228 227 227 224 221 220 220 219 218 218 220 220 223 227 231 236 236 234 238 242 245 247 249 249 248 248
220 220 221 223 223 224 224 224 224 225 224 224 225 227 227 227 227 227 228 226 222 221 221 221 221 221 222 222 223 227 231 233 235 238 242 247 249 250 249 250 253 253
219 219 220 222 223 224 225 225 224 224 225 224 224 226 227 227 226 225 227 228 225 224 224 224 225 224 224 225 224 227 230 232 236 238 240 243 247 248 248 249 254 256
219 219 220 221 222 224 225 225 224 224 224 224 224 225 225 226 226 225 226 227 226 226 225 226 227 226 225 227 227 228 231 234 238 240 240 241 245 248 249 250 254 258
220 220 220 220 221 223 224 224 224 224 223 223 223 224 224 224 224 225 226 226 226 227 227 227 228 227 226 228 229 231 233 235 239 241 241 243 245 247 249 250 252 256
219 220 220 220 220 222 223 222 222 223 224 223 222 222 223 222 222 224 225 225 226 227 228 229 229 229 228 229 230 231 233 235 238 240 241 242 243 245 246 246 247 251
219 218 219 220 219 220 220 220 219 219 224 226 222 221 222 222 221 221 224 225 225 226 228 229 230 231 231 231 231 232 233 234 236 238 239 240 241 243 244 244 247 250
219 217 217 218 218 218 217 217 216 215 221 226 225 221 221 223 222 221 223 225 225 226 228 230 231 232 232 232 232 233 233 234 235 237 238 239 240 242 245 248 251 253
218 217 217 216 217 217 214 214 214 213 215 222 226 224 221 222 224 223 223 225 226 227 228 230 232 233 234 234 234 234 234 234 235 236 238 239 240 242 246 251 254 255
217 217 217 216 217 218 215 213 213 212 212 218 225 226 222 222 224 225 225 225 227 229 229 231 234 235 236 236 235 235 235 236 236 236 238 240 242 244 246 250 253 255
216 216 217 217 217 219 218 216 215 215 214 217 224 227 224 222 223 226 228 228 228 229 231 233 235 236 237 236 236 235 235 236 238 238 239 240 242 245 246 248 250 252
215 216 216 216 217 218 218 218 219 220 221 222 226 227 225 223 222 224 228 230 231 231 231 233 235 237 238 237 236 236 235 236 238 240 240 241 242 244 246 248 249 251
217 217 217 216 217 218 218 218 219 222 223 224 226 227 225 224 224 225 226 229 231 231 231 233 236 238 239 238 236 235 235 236 238 240 241 242 242 244 246 248 249 251
218 217 217 217 217 217 218 218 219 221 223 224 225 225 225 225 225 226 226 226 228 230 230 232 235 238 240 239 237 235 234 235 237 239 241 243 244 244 246 248 250 252
218 217 217 217 216 217 217 218 218 220 222 223 224 225 226 227 227 227 227 226 227 228 229 230 234 238 239 239 237 235 234 234 235 238 240 242 244 245 246 248 250 252
219 218 217 217 216 216 217 217 218 219 221 223 225 226 227 228 228 229 229 228 228 229 229 230 232 236 239 238 237 235 234 233 234 237 239 242 244 245 247 248 250 252
219 218 218 218 218 217 218 218 218 219 221 223 225 228 229 230 230 231 232 232 230 230 231 231 231 235 238 239 237 236 235 234 235 236 239 242 243 245 247 249 250 252
218 218 218 218 218 218 219 219 219 220 221 223 225 227 230 232 232 232 234 235 234 233 233 233 232 233 237 239 238 236 235 235 236 237 239 241 243 245 247 249 251 252
217 218 218 218 219 219 219 220 220 221 221 222 224 226 228 232 233 233 235 236 236 235 235 234 233 233 235 237 238 236 234 234 236 237 239 241 243 245 247 249 251 253
217 217 217 217 218 218 219 220 220 221 221 222 224 225 226 229 233 233 234 235 237 237 236 235 234 235 235 236 236 235 234 234 235 237 239 241 242 244 246 249 251 253
218 218 217 218 218 219 219 220 220 221 221 221 223 224 225 227 230 231 231 233 236 238 239 237 236 237 238 237 235 235 234 234 235 237 239 240 242 244 246 248 250 252
218 218 218 219 220 220 221 221 221 221 222 222 222 223 224 225 227 229 230 232 234 237 240 240 239 239 240 239 236 235 234 233 234 236 238 239 241 243 245 247 249 251
Height
1557 1559 1562 1564 1566 1569 1571 1573 1575 1577 1579 1581 1583 1585 1586 1587 1589 1590 1592 1593 1594 1595 1596 1597 1598 1599 1600 1600 1601 1601 1602 1602 1602 1603 1603 1604 1604 1605 1605 1605 1606 1606
1553 1556 1559 1561 1563 1566 1568 1570 1572 1574 1577 1579 1581 1582 1583 1585 1587 1589 1590 1591 1592 1593 1594 1595 1596 1597 1598 1599 1599 1600 1601 1601 1601 1602 1602 1603 1603 1603 1604 1604 1605 1605
1550 1553 1555 1558 1560 1563 1565 1567 1569 1572 1574 1576 1578 1580 1581 1583 1585 1586 1588 1589 1590 1591 1592 1593 1594 1595 1596 1597 1598 1598 1599 1600 1600 1601 1601 1601 1602 1602 1603 1603 1604 1604
1547 1550 1552 1555 1558 1560 1563 1565 1566 1569 1571 1573 1575 1577 1578 1580 1582 1584 1585 1586 1588 1589 1590 1591 1592 1593 1594 1595 1596 1597 1597 1598 1599 1599 1600 1600 1600 1601 1601 1602 1602 1603
1543 1546 1549 1552 1555 1557 1560 1562 1564 1566 1568 1570 1572 1574 1576 1578 1580 1581 1583 1584 1585 1587 1588 1589 1590 1591 1592 1593 1594 1595 1595 1596 1597 1597 1598 1598 1599 1600 1600 1600 1601 1601
1540 1543 1546 1549 1552 1554 1556 1558 1561 1563 1565 1567 1569 1571 1573 1575 1577 1579 1580 1582 1583 1585 1586 1587 1588 1589 1590 1591 1592 1593 1593 1594 1595 1595 1596 1596 1597 1598 1599 1599 1599 1600
1536 1539 1543 1546 1549 1551 1553 1555 1558 1560 1562 1564 1566 1568 1570 1572 1574 1576 1578 1579 1581 1582 1583 1585 1586 1587 1588 1589 1590 1591 1591 1592 1593 1593 1594 1595 1595 1596 1597 1597 1598 1598
1533 1536 1539 1542 1545 1548 1550 1552 1555 1557 1559 1561 1563 1565 1567 1569 1571 1573 1575 1577 1578 1580 1581 1582 1583 1584 1586 1587 1588 1588 1589 1590 1590 1591 1592 1592 1593 1594 1595 1595 1596 1596
1529 1532 1535 1539 1542 1544 1547 1549 1551 1554 1556 1558 1560 1562 1564 1566 1568 1570 1572 1574 1576 1577 1578 1579 1580 1582 1583 1584 1585 1586 1587 1588 1588 1589 1590 1590 1591 1592 1592 1593 1594 1594
1525 1528 1532 1535 1538 1541 1543 1546 1549 1551 1552 1555 1557 1559 1561 1563 1565 1567 1569 1570 1572 1574 1575 1576 1578 1579 1581 1582 1583 1584 1584 1585 1586 1587 1587 1588 1589 1590 1590 1591 1591 1592
1521 1524 1528 1531 1534 1537 1540 1543 1546 1548 1549 1551 1554 1556 1558 1560 1562 1564 1565 1567 1569 1570 1572 1573 1575 1576 1577 1579 1580 1581 1582 1583 1584 1585 1585 1586 1587 1587 1588 1589 1589 1590
1516 1520 1523 1527 1530 1534 1537 1540 1542 1545 1547 1548 1550 1553 1555 1557 1558 1560 1562 1563 1565 1567 1569 1570 1572 1573 1574 1576 1577 1579 1580 1581 1581 1582 1583 1584 1585 1585 1586 1587 1587 1587
1512 1515 1519 1523 1526 1530 1533 1536 1539 1542 1544 1545 1547 1549 1552 1553 1555 1557 1559 1560 1562 1564 1566 1567 1568 1570 1571 1572 1574 1576 1577 1578 1579 1580 1581 1581 1582 1583 1584 1584 1585 1585
1508 1511 1515 1519 1522 1525 1529 1532 1535 1538 1540 1542 1544 1546 1548 1550 1552 1554 1555 1557 1559 1561 1563 1564 1565 1566 1568 1569 1571 1572 1574 1575 1576 1577 1578 1579 1579 1580 1581 1582 1582 1583
1504 1508 1511 1515 1518 1521 1525 1528 1531 1534 1536 1538 1540 1542 1545 1547 1549 1551 1552 1554 1556 1558 1559 1561 1562 1563 1564 1565 1567 1569 1571 1572 1573 1574 1575 1576 1577 1577 1578 1579 1580 1580
1500 1504 1507 1511 1514 1517 1520 1524 1527 1530 1532 1535 1536 1539 1542 1544 1546 1548 1549 1550 1552 1554 1556 1557 1558 1559 1560 1562 1564 1566 1568 1569 1570 1571 1572 1573 1574 1575 1575 1576 1577 1577
1496 1500 1503 1507 1510 1513 1517 1520 1523 1526 1528 1531 1533 1536 1538 1540 1542 1544 1545 1547 1549 1550 1552 1553 1554 1556 1557 1559 1562 1563 1565 1566 1567 1568 1569 1570 1571 1572 1572 1573 1574 1574
1492 1496 1499 1503 1506 1509 1513 1517 1520 1523 1525 1527 1530 1532 1534 1536 1538 1540 1542 1544 1546 1547 1548 1549 1550 1552 1554 1556 1558 1560 1562 1563 1564 1565 1566 1567 1568 1569 1569 1570 1571 1571
1489 1492 1496 1499 1502 1506 1510 1513 1516 1519 1521 1523 1526 1528 1530 1532 1534 1536 1538 1540 1542 1543 1545 1546 1547 1548 1550 1553 1555 1557 1559 1560 1561 1562 1562 1563 1564 1565 1566 1567 1567 1568
1485 1489 1492 1495 1499 1502 1506 1509 1512 1515 1517 1520 1523 1525 1526 1528 1530 1533 1534 1536 1538 1539 1541 1542 1544 1545 1547 1549 1552 1553 1555 1557 1558 1558 1559 1560 1561 1562 1563 1563 1564 1564
1481 1485 1489 1492 1495 1499 1502 1505 1508 1511 1514 1516 1519 1521 1523 1524 1527 1529 1530 1532 1534 1536 1537 1538 1540 1541 1543 1545 1548 1550 1552 1553 1554 1555 1555 1556 1557 1558 1559 1559 1560 1561
1478 1482 1485 1488 1492 1495 1498 1501 1504 1507 1510 1513 1515 1518 1519 1521 1523 1525 1527 1529 1530 1532 1533 1534 1536 1538 1539 1541 1543 1546 1548 1549 1550 1551 1551 1552 1553 1554 1555 1556 1556 1557
1474 1478 1481 1485 1488 1491 1494 1497 1500 1503 1506 1509 1512 1514 1516 1518 1520 1522 1524 1525 1526 1528 1529 1531 1532 1534 1535 1537 1539 1542 1544 1545 1546 1546 1547 1548 1549 1550 1551 1552 1552 1553
1471 1474 1478 1481 1484 1487 1490 1493 1496 1499 1502 1505 1508 1510 1513 1514 1516 1519 1520 1521 1523 1524 1525 1527 1529 1530 1531 1533 1535 1537 1539 1541 1542 1542 1543 1544 1545 1546 1547 1548 1548 1549
1468 1471 1474 1477 1480 1483 1487 1490 1493 1496 1499 1501 1504 1507 1509 1511 1513 1515 1516 1518 1519 1520 1522 1524 1526 1527 1528 1529 1531 1533 1535 1537 1538 1538 1538 1540 1541 1542 1543 1544 1545 1545
1464 1468 1471 1474 1477 1480 1484 1487 1490 1493 1495 1498 1500 1503 1505 1507 1509 1511 1513 1514 1516 1517 1518 1520 1521 1523 1524 1525 1527 1529 1531 1532 1533 1533 1534 1536 1537 1539 1539 1540 1541 1541